HAZ7409 ZYTX-UHWW

Flight info

Callsign HAZ7409
Flight time 1h 6m
Altitude 37100
Route LEM62D LEMOT A588 LJB G341 WQG B451 SANAR SANAR2M
Aircraft A319/M-SDE3FGHIRWY/LB1

Departure

Time 2026-04-22 09:55
Airport Shenyang Taoxian International Airport (ZYTX)

Arrival

Time 2026-04-22 11:02
Airport Vladivostok International Airport (UHWW)
Time Latitude Longitude Altitude Speed Heading
2026-04-22 09:32 41.62813 123.48858 207 ft 0 kts 66°
2026-04-22 09:45 41.62812 123.48857 207 ft 1 kts 66°
2026-04-22 09:45 41.62806 123.48840 207 ft 2 kts 65°
2026-04-22 09:46 41.62800 123.48822 207 ft 2 kts 65°
2026-04-22 09:46 41.62794 123.48804 207 ft 2 kts 66°
2026-04-22 09:46 41.62788 123.48785 207 ft 2 kts 68°
2026-04-22 09:46 41.62783 123.48766 207 ft 2 kts 66°
2026-04-22 09:47 41.62777 123.48748 207 ft 2 kts 67°
2026-04-22 09:47 41.62770 123.48730 207 ft 2 kts 40°
2026-04-22 09:47 41.62756 123.48721 207 ft 2 kts
2026-04-22 09:47 41.62742 123.48725 207 ft 1 kts 324°
2026-04-22 09:48 41.62740 123.48727 207 ft 0 kts 322°
2026-04-22 09:49 41.62741 123.48727 207 ft 0 kts 322°
2026-04-22 09:49 41.62754 123.48713 207 ft 3 kts 322°
2026-04-22 09:49 41.62767 123.48699 207 ft 4 kts 322°
2026-04-22 09:50 41.62793 123.48671 207 ft 4 kts 319°
2026-04-22 09:50 41.62820 123.48633 207 ft 6 kts 296°
2026-04-22 09:50 41.62804 123.48575 207 ft 7 kts 247°
2026-04-22 09:50 41.62826 123.48509 207 ft 8 kts 314°
2026-04-22 09:51 41.62873 123.48447 207 ft 10 kts 316°
2026-04-22 09:51 41.62933 123.48380 207 ft 11 kts 320°
2026-04-22 09:51 41.62999 123.48302 207 ft 13 kts 318°
2026-04-22 09:51 41.63032 123.48226 207 ft 8 kts 271°
2026-04-22 09:52 41.63046 123.48104 207 ft 10 kts 310°
2026-04-22 09:52 41.63086 123.48059 207 ft 11 kts 318°
2026-04-22 09:52 41.63155 123.47978 207 ft 14 kts 318°
2026-04-22 09:52 41.63234 123.47886 207 ft 15 kts 319°
2026-04-22 09:53 41.63319 123.47784 207 ft 16 kts 317°
2026-04-22 09:53 41.63285 123.47625 207 ft 16 kts 231°
2026-04-22 09:53 41.63235 123.47547 207 ft 16 kts 228°
2026-04-22 09:53 41.63155 123.47427 207 ft 17 kts 231°
2026-04-22 09:54 41.63072 123.47302 207 ft 18 kts 227°
2026-04-22 09:54 41.62987 123.47173 207 ft 18 kts 227°
2026-04-22 09:54 41.62957 123.47034 207 ft 17 kts 314°
2026-04-22 09:54 41.63057 123.46943 207 ft 17 kts
2026-04-22 09:55 41.63194 123.47122 207 ft 42 kts 49°
2026-04-22 09:55 41.63410 123.47450 207 ft 96 kts 49°
2026-04-22 09:55 41.64276 123.48735 414 ft 163 kts 46°
2026-04-22 09:55 41.64765 123.49472 982 ft 158 kts 47°
2026-04-22 09:56 41.65681 123.50896 2177 ft 150 kts 46°
2026-04-22 09:56 41.66118 123.51566 2700 ft 145 kts 44°
2026-04-22 09:56 41.66975 123.52886 3579 ft 144 kts 44°
2026-04-22 09:56 41.67667 123.53938 4034 ft 160 kts 43°
2026-04-22 09:57 41.68183 123.54722 4357 ft 171 kts 43°
2026-04-22 09:57 41.69001 123.55966 4850 ft 188 kts 43°
2026-04-22 09:57 41.70210 123.57812 5522 ft 212 kts 45°
2026-04-22 09:57 41.70955 123.59679 5941 ft 247 kts 72°
2026-04-22 09:58 41.71061 123.61265 6315 ft 265 kts 86°
2026-04-22 09:58 41.70965 123.64670 7171 ft 287 kts 87°
2026-04-22 09:58 41.70882 123.67367 8058 ft 294 kts 88°
2026-04-22 09:58 41.70830 123.69158 8671 ft 297 kts 88°
2026-04-22 09:59 41.70730 123.72872 9901 ft 304 kts 87°
2026-04-22 09:59 41.70684 123.74741 10480 ft 308 kts 87°
2026-04-22 09:59 41.70636 123.77647 11093 ft 323 kts 83°
2026-04-22 09:59 41.70961 123.80688 11623 ft 335 kts 70°
2026-04-22 10:00 41.71812 123.83598 12061 ft 347 kts 59°
2026-04-22 10:00 41.72932 123.86507 12673 ft 357 kts 57°
2026-04-22 10:00 41.74108 123.89487 13508 ft 363 kts 57°
2026-04-22 10:00 41.75262 123.92442 14288 ft 367 kts 58°
2026-04-22 10:01 41.76444 123.95511 15004 ft 373 kts 58°
2026-04-22 10:01 41.78032 123.99669 15942 ft 380 kts 58°
2026-04-22 10:01 41.78831 124.01773 16385 ft 384 kts 58°
2026-04-22 10:01 41.80037 124.04944 17038 ft 390 kts 58°
2026-04-22 10:02 41.81633 124.09319 17888 ft 399 kts 60°
2026-04-22 10:02 41.82346 124.11605 18273 ft 404 kts 63°
2026-04-22 10:02 41.83287 124.15194 18870 ft 412 kts 67°
2026-04-22 10:02 41.84397 124.20117 19625 ft 420 kts 68°
2026-04-22 10:03 41.84947 124.22624 20002 ft 423 kts 68°
2026-04-22 10:03 41.85773 124.26405 20554 ft 428 kts 68°
2026-04-22 10:03 41.86626 124.30286 21044 ft 434 kts 69°
2026-04-22 10:03 41.87478 124.34161 21594 ft 438 kts 69°
2026-04-22 10:04 41.88339 124.38077 22096 ft 443 kts 68°
2026-04-22 10:04 41.89206 124.42030 22597 ft 447 kts 68°
2026-04-22 10:04 41.90096 124.46083 23063 ft 452 kts 68°
2026-04-22 10:04 41.90976 124.50094 23518 ft 457 kts 68°
2026-04-22 10:05 41.91880 124.54224 24007 ft 461 kts 68°
2026-04-22 10:05 41.92786 124.58364 24495 ft 466 kts 68°
2026-04-22 10:05 41.93697 124.62501 24984 ft 469 kts 67°
2026-04-22 10:05 41.95069 124.66393 25402 ft 460 kts 48°
2026-04-22 10:06 41.97260 124.69443 25867 ft 444 kts 29°
2026-04-22 10:06 41.99890 124.71483 26364 ft 436 kts 19°
2026-04-22 10:06 42.02602 124.73257 26797 ft 440 kts 18°
2026-04-22 10:06 42.05370 124.75063 27273 ft 444 kts 18°
2026-04-22 10:07 42.08155 124.76922 27741 ft 448 kts 19°
2026-04-22 10:07 42.10924 124.78804 28198 ft 451 kts 19°
2026-04-22 10:07 42.13721 124.80725 28641 ft 455 kts 19°
2026-04-22 10:07 42.16571 124.82681 29055 ft 459 kts 19°
2026-04-22 10:08 42.19409 124.84633 29485 ft 463 kts 19°
2026-04-22 10:08 42.22259 124.86601 29929 ft 465 kts 19°
2026-04-22 10:08 42.26089 124.89249 30733 ft 463 kts 19°
2026-04-22 10:08 42.28940 124.91224 31302 ft 462 kts 19°
2026-04-22 10:09 42.31797 124.93201 31809 ft 462 kts 19°
2026-04-22 10:09 42.34655 124.95181 32320 ft 461 kts 19°
2026-04-22 10:09 42.36548 124.96493 32667 ft 461 kts 19°
2026-04-22 10:09 42.39398 124.98469 33204 ft 460 kts 18°
2026-04-22 10:10 42.42201 125.00416 33703 ft 459 kts 18°
2026-04-22 10:10 42.46003 125.03054 34305 ft 460 kts 18°
2026-04-22 10:10 42.47895 125.04370 34606 ft 460 kts 18°
2026-04-22 10:10 42.50721 125.06339 34938 ft 460 kts 18°
2026-04-22 10:11 42.53549 125.08309 35223 ft 461 kts 18°
2026-04-22 10:11 42.56435 125.10278 35500 ft 459 kts 16°
2026-04-22 10:11 42.59329 125.12015 35720 ft 457 kts 12°
2026-04-22 10:11 42.62285 125.13520 35945 ft 456 kts
2026-04-22 10:12 42.65242 125.15050 36242 ft 460 kts 12°
2026-04-22 10:12 42.68222 125.16613 36554 ft 461 kts 11°
2026-04-22 10:12 42.71238 125.18211 36814 ft 464 kts 12°
2026-04-22 10:12 42.74231 125.19842 37046 ft 467 kts 12°
2026-04-22 10:13 42.80253 125.23270 37073 ft 470 kts 13°
2026-04-22 10:13 42.86231 125.26860 37077 ft 470 kts 14°
2026-04-22 10:14 42.92132 125.30567 37083 ft 471 kts 15°
2026-04-22 10:14 42.98019 125.34422 37197 ft 470 kts 16°
2026-04-22 10:15 43.00970 125.36415 37001 ft 472 kts 17°
2026-04-22 10:15 43.04883 125.39133 37133 ft 472 kts 18°
2026-04-22 10:15 43.09711 125.42589 37159 ft 474 kts 18°
2026-04-22 10:16 43.16452 125.47498 37110 ft 472 kts 18°
2026-04-22 10:16 43.22229 125.51733 37070 ft 470 kts 18°
2026-04-22 10:17 43.28002 125.55973 37062 ft 471 kts 18°
2026-04-22 10:17 43.32799 125.59505 37050 ft 471 kts 18°
2026-04-22 10:18 43.38531 125.63735 37050 ft 471 kts 18°
2026-04-22 10:18 43.44303 125.68001 37070 ft 471 kts 19°
2026-04-22 10:19 43.50993 125.72962 37063 ft 470 kts 19°
2026-04-22 10:19 43.55810 125.76540 37029 ft 470 kts 19°
2026-04-22 10:20 43.61517 125.80785 37082 ft 470 kts 19°
2026-04-22 10:20 43.68206 125.85776 37046 ft 470 kts 19°
2026-04-22 10:21 43.73941 125.90070 37038 ft 467 kts 19°
2026-04-22 10:21 43.76741 125.92352 37028 ft 480 kts 27°
2026-04-22 10:21 43.78432 125.94421 37035 ft 494 kts 39°
2026-04-22 10:22 43.80424 125.98352 37042 ft 513 kts 57°
2026-04-22 10:22 43.81738 126.04738 37067 ft 530 kts 83°
2026-04-22 10:22 43.81697 126.08172 37037 ft 535 kts 96°
2026-04-22 10:22 43.80736 126.13074 37078 ft 533 kts 116°
2026-04-22 10:23 43.78782 126.17369 37042 ft 524 kts 136°
2026-04-22 10:23 43.76300 126.20998 37092 ft 523 kts 137°
2026-04-22 10:23 43.74094 126.25028 37098 ft 530 kts 122°
2026-04-22 10:23 43.72745 126.29748 37092 ft 534 kts 103°
2026-04-22 10:24 43.71533 126.39874 37068 ft 535 kts 96°
2026-04-22 10:24 43.70588 126.49987 37085 ft 535 kts 96°
2026-04-22 10:25 43.69590 126.60132 37073 ft 536 kts 97°
2026-04-22 10:25 43.68359 126.72022 37038 ft 536 kts 98°
2026-04-22 10:26 43.67475 126.80422 37046 ft 536 kts 98°
2026-04-22 10:26 43.66399 126.90587 37034 ft 536 kts 98°
2026-04-22 10:27 43.65316 127.00716 37061 ft 536 kts 97°
2026-04-22 10:27 43.64227 127.10857 37071 ft 536 kts 98°
2026-04-22 10:28 43.63128 127.20991 37058 ft 537 kts 98°
2026-04-22 10:28 43.61795 127.32820 37023 ft 536 kts 98°
2026-04-22 10:29 43.60733 127.41269 37083 ft 536 kts 99°
2026-04-22 10:29 43.59458 127.51306 37061 ft 536 kts 99°
2026-04-22 10:30 43.58173 127.61455 37075 ft 536 kts 99°
2026-04-22 10:30 43.56898 127.71509 37010 ft 537 kts 100°
2026-04-22 10:31 43.55603 127.81581 37035 ft 536 kts 99°
2026-04-22 10:31 43.54301 127.91694 37051 ft 536 kts 99°
2026-04-22 10:32 43.52995 128.01743 37018 ft 535 kts 99°
2026-04-22 10:32 43.51685 128.11804 37072 ft 536 kts 100°
2026-04-22 10:33 43.50138 128.23546 36986 ft 537 kts 99°
2026-04-22 10:33 43.48811 128.33673 37093 ft 538 kts 99°
2026-04-22 10:34 43.47754 128.42049 37000 ft 538 kts 98°
2026-04-22 10:34 43.46476 128.52185 37062 ft 538 kts 99°
2026-04-22 10:35 43.45183 128.62288 36997 ft 538 kts 99°
2026-04-22 10:35 43.43876 128.72417 37012 ft 539 kts 100°
2026-04-22 10:36 43.42561 128.82548 36973 ft 540 kts 100°
2026-04-22 10:36 43.41232 128.92679 37011 ft 540 kts 100°
2026-04-22 10:37 43.39233 129.07828 36709 ft 540 kts 101°
2026-04-22 10:37 43.38552 129.12849 36482 ft 538 kts 101°
2026-04-22 10:38 43.37853 129.17862 36168 ft 536 kts 101°
2026-04-22 10:38 43.37158 129.22862 35826 ft 533 kts 101°
2026-04-22 10:38 43.36464 129.27849 35280 ft 532 kts 101°
2026-04-22 10:38 43.35775 129.32806 34652 ft 532 kts 100°
2026-04-22 10:39 43.35082 129.37795 34155 ft 535 kts 101°
2026-04-22 10:39 43.34142 129.44521 33170 ft 541 kts 101°
2026-04-22 10:39 43.33664 129.47893 32700 ft 543 kts 100°
2026-04-22 10:39 43.32949 129.52940 31954 ft 546 kts 100°
2026-04-22 10:40 43.32230 129.58037 31139 ft 550 kts 99°
2026-04-22 10:40 43.31506 129.63162 30304 ft 553 kts 100°
2026-04-22 10:40 43.30524 129.70071 29130 ft 554 kts 100°
2026-04-22 10:40 43.30032 129.73517 28721 ft 550 kts 100°
2026-04-22 10:41 43.29427 129.78622 28192 ft 541 kts 96°
2026-04-22 10:41 43.29068 129.83672 27671 ft 533 kts 91°
2026-04-22 10:41 43.28800 129.90347 26946 ft 523 kts 90°
2026-04-22 10:41 43.28689 129.93654 26598 ft 519 kts 89°
2026-04-22 10:42 43.28526 129.98535 26053 ft 514 kts 89°
2026-04-22 10:42 43.28356 130.03413 25492 ft 509 kts 89°
2026-04-22 10:42 43.28125 130.09814 24759 ft 502 kts 89°
2026-04-22 10:42 43.28005 130.12978 24398 ft 499 kts 89°
2026-04-22 10:43 43.27817 130.17720 23842 ft 494 kts 89°
2026-04-22 10:43 43.27632 130.22382 23314 ft 489 kts 89°
2026-04-22 10:43 43.27386 130.28526 22579 ft 483 kts 89°
2026-04-22 10:43 43.27263 130.31557 22256 ft 480 kts 89°
2026-04-22 10:44 43.27077 130.36124 21713 ft 475 kts 89°
2026-04-22 10:44 43.26891 130.40593 21169 ft 471 kts 89°
2026-04-22 10:44 43.26701 130.45071 20648 ft 466 kts 89°
2026-04-22 10:44 43.26517 130.49428 20118 ft 462 kts 89°
2026-04-22 10:45 43.26332 130.53803 19597 ft 458 kts 89°
2026-04-22 10:45 43.26080 130.59572 18884 ft 453 kts 88°
2026-04-22 10:45 43.25896 130.63812 18394 ft 449 kts 89°
2026-04-22 10:45 43.25712 130.68083 17887 ft 444 kts 90°
2026-04-22 10:46 43.25591 130.70892 17552 ft 441 kts 90°
2026-04-22 10:46 43.25346 130.76454 16878 ft 436 kts 90°
2026-04-22 10:46 43.25226 130.79143 16538 ft 433 kts 90°
2026-04-22 10:46 43.25036 130.83266 15993 ft 429 kts 90°
2026-04-22 10:47 43.24791 130.88629 15320 ft 423 kts 90°
2026-04-22 10:47 43.24670 130.91289 15013 ft 420 kts 91°
2026-04-22 10:47 43.24488 130.95288 14508 ft 415 kts 91°
2026-04-22 10:47 43.24247 131.00452 13860 ft 408 kts 91°
2026-04-22 10:48 43.24125 131.03027 13549 ft 405 kts 91°
2026-04-22 10:48 43.23942 131.06885 13038 ft 400 kts 91°
2026-04-22 10:48 43.23701 131.11873 12384 ft 394 kts 91°
2026-04-22 10:48 43.23581 131.14342 12060 ft 390 kts 91°
2026-04-22 10:49 43.23402 131.18039 11578 ft 386 kts 91°
2026-04-22 10:49 43.23209 131.21655 11111 ft 381 kts 92°
2026-04-22 10:49 43.22958 131.25270 10687 ft 374 kts 93°
2026-04-22 10:49 43.22703 131.28705 10466 ft 360 kts 93°
2026-04-22 10:50 43.22453 131.32086 10316 ft 346 kts 92°
2026-04-22 10:50 43.22220 131.35274 10173 ft 332 kts 92°
2026-04-22 10:50 43.21999 131.38339 10045 ft 320 kts 92°
2026-04-22 10:50 43.21784 131.41334 9846 ft 311 kts 92°
2026-04-22 10:51 43.21533 131.44251 9513 ft 309 kts 96°
2026-04-22 10:51 43.20840 131.48044 9152 ft 304 kts 105°
2026-04-22 10:51 43.20407 131.49863 9122 ft 294 kts 106°
2026-04-22 10:51 43.19569 131.53264 9107 ft 276 kts 106°
2026-04-22 10:52 43.19164 131.54907 9084 ft 268 kts 106°
2026-04-22 10:52 43.18584 131.57286 9054 ft 256 kts 104°
2026-04-22 10:52 43.18328 131.59610 8840 ft 247 kts 82°
2026-04-22 10:52 43.18636 131.62717 8341 ft 246 kts 67°
2026-04-22 10:53 43.19011 131.64168 8100 ft 245 kts 59°
2026-04-22 10:53 43.19814 131.66220 7738 ft 243 kts 51°
2026-04-22 10:53 43.20721 131.68175 7391 ft 245 kts 51°
2026-04-22 10:53 43.21631 131.70157 7042 ft 247 kts 52°
2026-04-22 10:54 43.22817 131.72879 6557 ft 250 kts 53°
2026-04-22 10:54 43.23392 131.74257 6327 ft 251 kts 54°
2026-04-22 10:54 43.24242 131.76341 5977 ft 250 kts 55°
2026-04-22 10:54 43.25063 131.78400 5619 ft 244 kts 55°
2026-04-22 10:55 43.25856 131.80408 5279 ft 236 kts 55°
2026-04-22 10:55 43.26881 131.83005 4897 ft 233 kts 55°
2026-04-22 10:55 43.27651 131.84949 4590 ft 233 kts 56°
2026-04-22 10:55 43.28164 131.86241 4377 ft 232 kts 55°
2026-04-22 10:56 43.29181 131.88805 3963 ft 226 kts 55°
2026-04-22 10:56 43.29675 131.90047 3768 ft 220 kts 55°
2026-04-22 10:56 43.30391 131.91847 3478 ft 210 kts 55°
2026-04-22 10:56 43.31079 131.93570 3189 ft 200 kts 55°
2026-04-22 10:57 43.31941 131.95725 2903 ft 183 kts 54°
2026-04-22 10:57 43.32534 131.97205 2642 ft 172 kts 54°
2026-04-22 10:57 43.33086 131.98583 2382 ft 158 kts 53°
2026-04-22 10:57 43.33433 131.99449 2234 ft 149 kts 53°
2026-04-22 10:58 43.33910 132.00638 2031 ft 140 kts 52°
2026-04-22 10:58 43.34367 132.01770 1840 ft 129 kts 52°
2026-04-22 10:58 43.34797 132.02834 1678 ft 127 kts 52°
2026-04-22 10:58 43.35228 132.03897 1510 ft 127 kts 52°
2026-04-22 10:59 43.35658 132.04961 1354 ft 127 kts 53°
2026-04-22 10:59 43.36085 132.06024 1190 ft 127 kts 53°
2026-04-22 10:59 43.36511 132.07082 1025 ft 126 kts 54°
2026-04-22 10:59 43.36933 132.08128 849 ft 126 kts 54°
2026-04-22 11:00 43.37361 132.09186 674 ft 126 kts 55°
2026-04-22 11:00 43.37775 132.10242 513 ft 126 kts 56°
2026-04-22 11:00 43.38203 132.11302 332 ft 125 kts 55°
2026-04-22 11:00 43.38637 132.12328 166 ft 125 kts 56°
2026-04-22 11:01 43.39060 132.13386 36 ft 124 kts 57°
2026-04-22 11:01 43.39517 132.14504 48 ft 70 kts 62°
2026-04-22 11:01 43.39737 132.15059 55 ft 62 kts 58°
2026-04-22 11:01 43.39869 132.15395 57 ft 57 kts 62°
2026-04-22 11:02 43.40029 132.15785 54 ft 42 kts 65°
2026-04-22 11:02 43.40208 132.16242 45 ft 39 kts 59°
2026-04-22 11:02 43.40297 132.16457 40 ft 36 kts 61°
2026-04-22 11:02 43.40403 132.16722 37 ft 25 kts 61°
2026-04-22 11:03 43.40378 132.16893 36 ft 21 kts 155°
2026-04-22 11:03 43.40245 132.16992 37 ft 21 kts 149°
2026-04-22 11:03 43.40115 132.17088 39 ft 20 kts 162°
2026-04-22 11:03 43.40035 132.16983 41 ft 16 kts 243°
2026-04-22 11:04 43.39983 132.16856 45 ft 14 kts 240°
2026-04-22 11:04 43.39918 132.16693 46 ft 15 kts 241°
2026-04-22 11:04 43.39884 132.16611 48 ft 14 kts 240°
2026-04-22 11:04 43.39823 132.16461 53 ft 9 kts 240°
2026-04-22 11:05 43.39789 132.16437 54 ft 8 kts 175°
2026-04-22 11:05 43.39747 132.16466 56 ft 5 kts 150°
2026-04-22 11:05 43.39723 132.16484 56 ft 2 kts 150°
2026-04-22 11:05 43.39719 132.16487 56 ft 0 kts 150°